This is the latest recevied weather packets stored in our database for station/object BAGASKAR. If no packets are shown the sender has not sent any weather packets the latest 10 day(s).
| Time | Temp. | Humidity | Pressure | Rain* | Wind** | Luminosity | Snow |
|---|---|---|---|---|---|---|---|
| 1778138845 | 7.78° C | 57% | 1015.9 hPa | - | - | - | - |
| 1778137645 | 7.78° C | 54% | 1015.9 hPa | - | - | - | - |
| 1778136445 | 7.78° C | 54% | 1015.9 hPa | - | - | - | - |
| 1778135245 | 7.78° C | 51% | 1015.8 hPa | - | - | - | - |
| 1778134045 | 7.22° C | 50% | 1015.7 hPa | - | - | - | - |
| 1778132845 | 6.67° C | 53% | 1015.6 hPa | - | - | - | - |
| 1778131645 | 6.67° C | 54% | 1015.5 hPa | - | - | - | - |
| 1778130444 | 6.11° C | 56% | 1015.5 hPa | - | - | - | - |
| 1778129245 | 5.56° C | 60% | 1015.4 hPa | - | - | - | - |
| 1778126845 | 5.56° C | 60% | 1015.4 hPa | - | - | - | - |
| 1778125645 | 5° C | 58% | 1015.3 hPa | - | - | - | - |
| 1778124445 | 5° C | 58% | 1015.2 hPa | - | - | - | - |
| 1778123245 | 5° C | 58% | 1015.1 hPa | - | - | - | - |
| 1778122044 | 5° C | 59% | 1014.9 hPa | - | - | - | - |
| 1778120845 | 5° C | 60% | 1015 hPa | - | - | - | - |
| 1778119644 | 5° C | 58% | 1015 hPa | - | - | - | - |
| 1778118444 | 5° C | 57% | 1015 hPa | - | - | - | - |
| 1778117244 | 5° C | 54% | 1014.9 hPa | - | - | - | - |
| 1778116044 | 5° C | 55% | 1014.9 hPa | - | - | - | - |
| 1778114844 | 5.56° C | 54% | 1014.7 hPa | - | - | - | - |
| 1778113644 | 5.56° C | 53% | 1014.8 hPa | - | - | - | - |
| 1778112444 | 5.56° C | 58% | 1014.7 hPa | - | - | - | - |
| 1778111244 | 5.56° C | 58% | 1014.7 hPa | - | - | - | - |
| 1778110044 | 5.56° C | 57% | 1014.7 hPa | - | - | - | - |
| 1778108845 | 5.56° C | 62% | 1014.7 hPa | - | - | - | - |
* Rain since midnight (hover to see other rain measurements)
** Current wind speed in m/s (hover to see current wind gust speed)